| time (UTC) | temp C | wind direction | speed KPH | gust KPH | rain 1hr cm | rain 24hr cm | rain mn cm | humidity % | barometer mb |
| 20260509161518 | 18 | 272 | 4.8 | 17.7 | 0.00 | 0.00 | 0.00 | 56 | 1002.8 |
| 20260509160016 | 18 | 306 | 4.8 | 12.9 | 0.00 | 0.00 | 0.00 | 56 | 1002.6 |
| 20260509154513 | 18 | 261 | 4.8 | 14.5 | 0.00 | 0.00 | 0.00 | 60 | 1002.7 |
| 20260509153011 | 17 | 231 | 1.6 | 12.9 | 0.00 | 0.00 | 0.00 | 61 | 1002.6 |
| 20260509151510 | 17 | 207 | 3.2 | 8.0 | 0.00 | 0.00 | 0.00 | 63 | 1002.6 |
| 20260509150008 | 17 | 205 | 1.6 | 12.9 | 0.00 | 0.00 | 0.00 | 66 | 1002.5 |
| 20260509144505 | 16 | 233 | 6.4 | 17.7 | 0.00 | 0.00 | 0.00 | 68 | 1002.6 |
| 20260509143002 | 16 | 244 | 4.8 | 12.9 | 0.00 | 0.00 | 0.00 | 69 | 1002.6 |
| 20260509141558 | 15 | 260 | 3.2 | 16.1 | 0.00 | 0.00 | 0.00 | 72 | 1002.5 |
| 20260509140103 | 15 | 226 | 6.4 | 17.7 | 0.00 | 0.00 | 0.00 | 73 | 1002.5 |
| 20260509134552 | 15 | 215 | 1.6 | 8.0 | 0.00 | 0.00 | 0.00 | 76 | 1002.2 |
| 20260509133045 | 14 | 215 | 3.2 | 11.3 | 0.00 | 0.00 | 0.00 | 77 | 1002.4 |
| 20260509131546 | 13 | 226 | 3.2 | 14.5 | 0.00 | 0.00 | 0.00 | 78 | 1002.7 |
| 20260509130042 | 13 | 230 | 3.2 | 9.7 | 0.00 | 0.00 | 0.00 | 79 | 1002.6 |
| 20260509124538 | 13 | 212 | 4.8 | 16.1 | 0.00 | 0.00 | 0.00 | 81 | 1002.4 |
| 20260509123035 | 12 | 239 | 3.2 | 9.7 | 0.00 | 0.00 | 0.00 | 83 | 1002.6 |
| 20260509121537 | 12 | 238 | 1.6 | 9.7 | 0.00 | 0.00 | 0.00 | 83 | 1002.6 |
| 20260509120038 | 12 | 228 | 0.0 | 12.9 | 0.00 | 0.00 | 0.00 | 83 | 1002.5 |
| 20260509114533 | 12 | 223 | 0.0 | 4.8 | 0.00 | 0.00 | 0.00 | 84 | 1002.4 |
| 20260509113031 | 12 | 218 | 0.0 | 4.8 | 0.00 | 0.00 | 0.00 | 83 | 1002.2 |
| 20260509111530 | 12 | 226 | 0.0 | 4.8 | 0.00 | 0.00 | 0.00 | 83 | 1002.2 |
| 20260509110027 | 12 | 247 | 0.0 | 3.2 | 0.00 | 0.00 | 0.00 | 83 | 1002.0 |
| 20260509104526 | 12 | 217 | 0.0 | 3.2 | 0.00 | 0.00 | 0.00 | 83 | 1001.9 |
| 20260509103025 | 12 | 206 | 0.0 | 4.8 | 0.00 | 0.00 | 0.00 | 82 | 1001.9 |
| 20260509101528 | 12 | 212 | 0.0 | 1.6 | 0.00 | 0.00 | 0.00 | 83 | 1001.9 |
| 20260509100023 | 12 | 213 | 0.0 | 1.6 | 0.00 | 0.00 | 0.00 | 84 | 1002.1 |
| 20260509094527 | 11 | 231 | 0.0 | 3.2 | 0.00 | 0.00 | 0.00 | 84 | 1002.4 |
| 20260509093020 | 11 | 240 | 0.0 | 8.0 | 0.00 | 0.00 | 0.00 | 85 | 1002.7 |
| 20260509091519 | 11 | 209 | 0.0 | 1.6 | 0.00 | 0.00 | 0.00 | 85 | 1002.6 |
| 20260509090018 | 11 | 209 | 0.0 | 1.6 | 0.00 | 0.00 | 0.00 | 84 | 1002.5 |
| 20260509084516 | 11 | 209 | 0.0 | 6.4 | 0.00 | 0.00 | 0.00 | 84 | 1002.9 |
| 20260509083015 | 11 | 239 | 0.0 | 4.8 | 0.00 | 0.00 | 0.00 | 84 | 1002.8 |
| 20260509081516 | 11 | 218 | 0.0 | 0.0 | 0.00 | 0.00 | 0.00 | 83 | 1002.8 |
| 20260509080014 | 12 | 219 | 0.0 | 1.6 | 0.00 | 0.00 | 0.00 | 82 | 1002.8 |
| 20260509074511 | 12 | 215 | 0.0 | 1.6 | 0.00 | 0.00 | 0.00 | 82 | 1002.8 |
| 20260509073020 | 12 | 215 | 0.0 | 4.8 | 0.00 | 0.00 | 0.00 | 81 | 1003.1 |
| 20260509071507 | 12 | 219 | 0.0 | 1.6 | 0.00 | 0.00 | 0.00 | 80 | 1003.4 |
| 20260509070004 | 12 | 246 | 0.0 | 4.8 | 0.00 | 0.00 | 0.00 | 80 | 1003.6 |
| 20260509064502 | 12 | 211 | 0.0 | 1.6 | 0.00 | 0.00 | 0.00 | 80 | 1003.7 |
| 20260509063103 | 12 | 211 | 0.0 | 1.6 | 0.00 | 0.00 | 0.00 | 80 | 1003.9 |
| 20260509061602 | 13 | 207 | 0.0 | 1.6 | 0.00 | 0.00 | 0.00 | 80 | 1003.9 |
| 20260509060104 | 13 | 207 | 0.0 | 3.2 | 0.00 | 0.00 | 0.00 | 79 | 1004.2 |
| 20260509054611 | 13 | 234 | 0.0 | 4.8 | 0.00 | 0.00 | 0.00 | 78 | 1004.3 |
| 20260509053055 | 13 | 221 | 0.0 | 4.8 | 0.00 | 0.00 | 0.00 | 77 | 1004.3 |
| 20260509051551 | 13 | 207 | 0.0 | 4.8 | 0.00 | 0.00 | 0.00 | 76 | 1004.2 |
| 20260509050053 | 13 | 249 | 0.0 | 6.4 | 0.00 | 0.00 | 0.00 | 74 | 1004.3 |
| 20260509044547 | 13 | 198 | 0.0 | 3.2 | 0.00 | 0.00 | 0.00 | 73 | 1004.1 |
| 20260509043049 | 13 | 199 | 0.0 | 1.6 | 0.00 | 0.00 | 0.00 | 73 | 1004.5 |
| 20260509041546 | 13 | 167 | 0.0 | 1.6 | 0.00 | 0.00 | 0.00 | 72 | 1004.3 |
| 20260509040104 | 13 | 143 | 0.0 | 1.6 | 0.00 | 0.00 | 0.00 | 72 | 1004.3 |
| 20260509034548 | 12 | 128 | 0.0 | 1.6 | 0.00 | 0.00 | 0.00 | 72 | 1004.6 |
| 20260509033042 | 12 | 118 | 0.0 | 1.6 | 0.00 | 0.00 | 0.00 | 71 | 1004.5 |
| 20260509031541 | 12 | 118 | 0.0 | 1.6 | 0.00 | 0.00 | 0.00 | 71 | 1004.6 |
| 20260509030045 | 12 | 118 | 0.0 | 0.0 | 0.00 | 0.00 | 0.00 | 69 | 1004.6 |
| 20260509024539 | 12 | 118 | 0.0 | 0.0 | 0.00 | 0.00 | 0.00 | 69 | 1004.7 |
| 20260509023043 | 12 | 118 | 0.0 | 3.2 | 0.00 | 0.00 | 0.00 | 68 | 1004.9 |
| 20260509021544 | 12 | 118 | 0.0 | 1.6 | 0.00 | 0.00 | 0.00 | 67 | 1004.9 |
| 20260509020041 | 12 | 118 | 0.0 | 3.2 | 0.00 | 0.00 | 0.00 | 66 | 1005.0 |
| 20260509014537 | 12 | 118 | 0.0 | 4.8 | 0.00 | 0.00 | 0.00 | 65 | 1004.9 |
| 20260509013041 | 12 | 118 | 0.0 | 3.2 | 0.00 | 0.00 | 0.00 | 64 | 1004.9 |
| 20260509011550 | 13 | 117 | 0.0 | 4.8 | 0.00 | 0.00 | 0.00 | 62 | 1004.8 |
| 20260509010040 | 13 | 112 | 0.0 | 4.8 | 0.00 | 0.00 | 0.00 | 61 | 1004.8 |
| 20260509004543 | 13 | 107 | 1.6 | 6.4 | 0.00 | 0.00 | 0.00 | 60 | 1004.8 |
| 20260509003036 | 13 | 107 | 0.0 | 11.3 | 0.00 | 0.00 | 0.00 | 59 | 1004.9 |
| 20260509001534 | 13 | 92 | 1.6 | 9.7 | 0.00 | 0.00 | 0.00 | 58 | 1005.1 |
| 20260509000033 | 14 | 97 | 1.6 | 12.9 | 0.00 | 0.00 | 0.00 | 59 | 1005.0 |
| 20260508234532 | 14 | 114 | 0.0 | 11.3 | 0.00 | 0.00 | 0.00 | 58 | 1005.1 |
| 20260508233032 | 15 | 117 | 3.2 | 17.7 | 0.00 | 0.00 | 0.00 | 58 | 1005.2 |
| 20260508231529 | 15 | 122 | 3.2 | 11.3 | 0.00 | 0.00 | 0.00 | 55 | 1005.3 |
| 20260508230029 | 15 | 119 | 3.2 | 12.9 | 0.00 | 0.00 | 0.00 | 55 | 1005.4 |
| 20260508224528 | 15 | 120 | 1.6 | 14.5 | 0.00 | 0.03 | 0.00 | 58 | 1005.5 |
| 20260508223037 | 14 | 112 | 1.6 | 14.5 | 0.00 | 0.03 | 0.00 | 57 | 1005.5 |
| 20260508221523 | 14 | 116 | 4.8 | 12.9 | 0.00 | 0.03 | 0.00 | 57 | 1005.6 |
| 20260508220024 | 15 | 120 | 1.6 | 12.9 | 0.00 | 0.18 | 0.00 | 57 | 1005.7 |
| 20260508214520 | 15 | 109 | 1.6 | 11.3 | 0.00 | 0.18 | 0.00 | 55 | 1005.8 |
| 20260508213025 | 15 | 110 | 3.2 | 12.9 | 0.00 | 0.18 | 0.00 | 59 | 1005.8 |
| 20260508211520 | 15 | 94 | 4.8 | 12.9 | 0.00 | 0.18 | 0.00 | 57 | 1005.9 |
| 20260508210020 | 15 | 120 | 4.8 | 12.9 | 0.00 | 0.18 | 0.00 | 54 | 1005.9 |
| 20260508204522 | 16 | 124 | 6.4 | 17.7 | 0.00 | 0.18 | 0.00 | 52 | 1006.0 |
| 20260508203015 | 16 | 103 | 1.6 | 14.5 | 0.00 | 0.18 | 0.00 | 50 | 1006.2 |
| 20260508201513 | 16 | 111 | 3.2 | 17.7 | 0.00 | 0.18 | 0.00 | 48 | 1006.4 |
| 20260508200012 | 16 | 117 | 6.4 | 19.3 | 0.00 | 0.18 | 0.00 | 46 | 1006.8 |
| 20260508194508 | 16 | 120 | 6.4 | 22.5 | 0.00 | 0.18 | 0.00 | 45 | 1007.0 |
| 20260508193007 | 16 | 133 | 8.0 | 17.7 | 0.00 | 0.18 | 0.00 | 46 | 1007.1 |
| 20260508191508 | 16 | 104 | 9.7 | 19.3 | 0.00 | 0.18 | 0.00 | 41 | 1007.2 |
| 20260508190004 | 16 | 117 | 6.4 | 16.1 | 0.00 | 0.18 | 0.00 | 42 | 1007.4 |
| 20260508184502 | 16 | 106 | 3.2 | 16.1 | 0.00 | 0.18 | 0.00 | 40 | 1007.6 |
| 20260508183100 | 16 | 125 | 1.6 | 24.1 | 0.00 | 0.18 | 0.00 | 41 | 1007.8 |
| 20260508181603 | 16 | 136 | 1.6 | 16.1 | 0.00 | 0.18 | 0.00 | 42 | 1007.9 |
| 20260508180059 | 16 | 106 | 8.0 | 20.9 | 0.00 | 0.18 | 0.00 | 40 | 1008.0 |
| 20260508174559 | 17 | 88 | 8.0 | 17.7 | 0.00 | 0.18 | 0.00 | 41 | 1008.2 |
| 20260508173053 | 16 | 90 | 6.4 | 12.9 | 0.00 | 0.18 | 0.00 | 43 | 1008.6 |
| 20260508171551 | 16 | 111 | 4.8 | 14.5 | 0.00 | 0.18 | 0.00 | 43 | 1008.7 |
| 20260508170050 | 16 | 113 | 3.2 | 9.7 | 0.00 | 0.18 | 0.00 | 46 | 1009.0 |
| 20260508164547 | 16 | 93 | 6.4 | 17.7 | 0.00 | 0.18 | 0.00 | 46 | 1009.2 |
| 20260508163048 | 16 | 96 | 3.2 | 12.9 | 0.00 | 0.18 | 0.00 | 47 | 1009.5 |